Weather History for Driggs, ID

Change the Weather History Date:

Sunday, November 18, 2012

  Actual Average (KRXE) Record (KRXE)
Temperature  
Mean Temperature 36 °F 29 °F  
Max Temperature 41 °F 39 °F 56 °F (2008)
Min Temperature 32 °F 20 °F 14 °F (2000)
Degree Days  
Heating Degree Days 28 36  
Month to date heating degree days 560  
Since 1 July heating degree days 1547  
Cooling Degree Days 0 0  
Month to date cooling degree days 0  
Year to date cooling degree days 208  
Moisture  
Dew Point 33 °F    
Average Humidity 85    
Maximum Humidity 93    
Minimum Humidity 73    
Precipitation  
Precipitation 0.12 in 0.03 in 0.25 in (1988)
Month to date precipitation 0.68  
Year to date precipitation 11.67  
Sea Level Pressure  
Sea Level Pressure 29.94 in    
Wind  
Wind Speed 10 mph (South)    
Max Wind Speed 25 mph    
Max Gust Speed -    
Visibility 9 miles    
Events Rain , Snow    
T = Trace of Precipitation, MM = Missing Value Source: NWS Daily Summary

Daily Weather History Graph

Daily Weather History Graph

Search for Another Location

Airport:

Trip Planner

Search our weather history database for the weather conditions in past years. The results will help you decide how hot, cold, wet, or windy it might be!

Date:

Astronomy

Nov. 18, 2012 Rise Set
Actual Time 7:23 AM MST 4:55 PM MST
Civil Twilight 6:51 AM MST 5:26 PM MST
Nautical Twilight 6:16 AM MST 6:02 PM MST
Astronomical Twilight 5:42 AM MST 6:36 PM MST
Moon 11:50 AM MST (11/18) 10:22 PM MST (11/18)
Length of Visible Light 10h 35m
Length of Day
9h 32m
Waxing Crescent, 31% of the Moon is Illuminated
Nov 18
Waxing Crescent
Nov 20
First Quarter
Nov 28
Full
Dec 6
Last Quarter
Dec 13
New

Hourly Weather History & Observations

Time (MST) Temp. Windchill Dew Point Humidity Pressure Visibility Wind Dir Wind Speed Gust Speed Precip Events Conditions
12:56 AM 41.0 °F 36.4 °F 34.0 °F 76% 29.82 in 10.0 mi SSW 6.9 mph - N/A   Overcast
1:49 AM 41.0 °F 34.7 °F 35.6 °F 81% 29.92 in 10.0 mi SSW 10.4 mph - N/A   Overcast
1:56 AM 41.0 °F 36.4 °F 34.9 °F 79% 29.81 in 10.0 mi South 6.9 mph - N/A   Overcast
2:56 AM 41.0 °F 36.4 °F 34.0 °F 76% 29.81 in 10.0 mi South 6.9 mph - N/A   Overcast
3:32 AM 39.2 °F 32.5 °F 35.6 °F 87% 29.91 in 10.0 mi SW 10.4 mph - 0.00 in   Overcast
3:56 AM 38.8 °F 33.2 °F 36.0 °F 89% 29.81 in 9.0 mi SSW 8.1 mph - 0.00 in Rain Light Rain
4:04 AM 39.2 °F 31.6 °F 35.6 °F 87% 29.91 in 10.0 mi SSW 12.7 mph - 0.01 in Rain Light Rain
4:56 AM 37.9 °F 34.4 °F 36.0 °F 93% 29.80 in 10.0 mi SE 4.6 mph - 0.02 in   Mostly Cloudy
5:29 AM 39.2 °F 28.3 °F 35.6 °F 87% 29.94 in 1.8 mi SW 25.3 mph - 0.05 in Rain Light Rain
5:38 AM 35.6 °F 24.5 °F 33.8 °F 93% 29.96 in 2.0 mi SW 20.7 mph - 0.07 in Snow Light Snow
5:47 AM 35.6 °F 27.1 °F 33.8 °F 93% 29.94 in 5.0 mi South 12.7 mph - 0.08 in Snow Light Snow
5:56 AM 34.9 °F 25.3 °F 32.9 °F 92% 29.86 in 10.0 mi SSE 15.0 mph - 0.08 in   Mostly Cloudy
6:00 AM 33.8 °F 23.5 °F 32.0 °F 93% 29.95 in 10.0 mi SSE 16.1 mph - N/A   Mostly Cloudy
6:56 AM 37.9 °F 32.1 °F 32.0 °F 79% 29.84 in 10.0 mi South 8.1 mph - N/A   Mostly Cloudy
7:56 AM 36.9 °F 29.6 °F 34.0 °F 89% 29.87 in 10.0 mi South 10.4 mph - 0.00 in   Overcast
8:56 AM 37.9 °F 30.0 °F 32.9 °F 82% 29.90 in 10.0 mi South 12.7 mph - 0.00 in   Mostly Cloudy
9:12 AM 37.4 °F 30.8 °F 33.8 °F 87% 29.98 in 6.0 mi South 9.2 mph - 0.01 in Rain Light Rain
9:20 AM 37.4 °F 30.3 °F 33.8 °F 87% 29.98 in 5.0 mi South 10.4 mph - 0.01 in Rain Light Rain
9:45 AM 35.6 °F 27.1 °F 33.8 °F 93% 29.99 in 10.0 mi SSE 12.7 mph - 0.02 in   Overcast
9:56 AM 34.9 °F 25.3 °F 32.9 °F 92% 29.95 in 10.0 mi SSE 15.0 mph - 0.02 in   Overcast
10:56 AM 37.9 °F 31.5 °F 34.0 °F 86% 29.95 in 10.0 mi SSE 9.2 mph - 0.00 in   Mostly Cloudy
11:10 AM 39.2 °F 31.2 °F 35.6 °F 87% 30.01 in 10.0 mi SSE 13.8 mph - N/A   Mostly Cloudy
11:56 AM 37.9 °F 30.9 °F 34.0 °F 86% 29.93 in 10.0 mi South 10.4 mph - N/A   Mostly Cloudy
12:56 PM 37.9 °F 30.9 °F 32.9 °F 82% 29.93 in 10.0 mi SSE 10.4 mph - N/A   Mostly Cloudy
1:56 PM 37.9 °F 32.1 °F 32.0 °F 79% 29.95 in 10.0 mi SSE 8.1 mph - N/A   Mostly Cloudy
2:56 PM 39.9 °F 32.9 °F 32.0 °F 73% 29.95 in 10.0 mi South 11.5 mph - N/A   Scattered Clouds
3:56 PM 37.9 °F 30.9 °F 31.1 °F 76% 29.97 in 10.0 mi SSE 10.4 mph - N/A   Mostly Cloudy
4:56 PM 36.9 °F 28.7 °F 29.1 °F 74% 30.00 in 10.0 mi SSE 12.7 mph - N/A   Overcast
5:56 PM 36.0 °F 29.0 °F 29.1 °F 76% 30.03 in 10.0 mi South 9.2 mph - N/A   Scattered Clouds
6:56 PM 36.0 °F 28.5 °F 30.0 °F 79% 30.05 in 10.0 mi South 10.4 mph - N/A   Mostly Cloudy
7:56 PM 34.9 °F 28.3 °F 30.0 °F 82% 30.05 in 10.0 mi South 8.1 mph - N/A   Mostly Cloudy
8:56 PM 32.9 °F 26.7 °F 31.1 °F 93% 30.05 in 10.0 mi SSE 6.9 mph - N/A   Mostly Cloudy
9:56 PM 32.0 °F 26.4 °F 30.0 °F 92% 30.08 in 10.0 mi SE 5.8 mph - N/A   Partly Cloudy
10:56 PM 34.0 °F 28.8 °F 31.1 °F 89% 30.08 in 10.0 mi SE 5.8 mph - N/A   Mostly Cloudy
11:56 PM 32.9 °F 29.8 °F 30.0 °F 89% 30.09 in 10.0 mi SE 3.5 mph - N/A   Overcast